Location: Unspecified
(0.0000°N, 0.0000°E)
Time: 07:45:17
(UTC+00:00)

Explorer 22 - Visible Passes

Search period start: 17 September 2024 00:00
Search period end: 27 September 2024 00:00
Orbit: 866 x 1042 km, 79.7° (Epoch: 16 September)

Date Brightness Start Highest point End Pass type
(mag) Time Alt. Az. Time Alt. Az. Time Alt. Az.
17 Sep 8.4 19:26:39 10° NNW 19:32:48 52° W 19:39:10 10° S visible
18 Sep 9.5 19:46:35 10° NW 19:51:50 27° W 19:57:16 10° SSW visible
19 Sep 7.8 18:19:39 10° N 18:25:48 49° E 18:32:08 10° SSE visible
19 Sep 10.4 20:07:53 10° WNW 20:10:55 14° W 20:14:00 10° SW visible
20 Sep 7.6 18:38:22 10° N 18:44:48 88° W 18:51:26 10° S visible
21 Sep 8.7 18:57:42 10° NNW 19:03:49 47° W 19:10:08 10° S visible
22 Sep 9.8 19:17:45 10° NW 19:22:52 25° W 19:28:06 10° SSW visible
23 Sep 10.7 19:39:28 10° WNW 19:41:55 12° W 19:44:24 10° WSW visible
24 Sep 10.3 05:10:16 10° SE 05:14:11 19° E 05:18:01 10° NE visible
24 Sep 7.8 18:09:19 10° N 18:15:48 81° W 18:22:28 10° S visible
25 Sep 9.0 18:28:44 10° NNW 18:34:50 43° W 18:41:03 10° SSW visible
26 Sep 10.2 18:48:56 10° NW 18:53:52 23° W 18:58:52 10° SW visible
